Theta_e
311 312 313 312 310 310 309 310 307 310 311 318 322 322 325 328 331 331 332 334 337 339 342 344 348 350 352 355 357 355 351 360 359 359 359 359 357 363 361 363 362 362 362 362
309 312 312 309 311 311 312 312 311 312 311 319 324 325 326 327 330 330 332 331 336 338 339 342 345 346 349 351 354 354 355 354 358 358 360 359 362 362 365 364 364 364 360 361
304 311 311 305 310 311 312 313 313 309 315 321 322 322 325 327 329 331 332 335 335 337 339 342 338 344 345 349 352 351 353 353 358 358 358 359 360 360 361 362 362 362 362 361
305 308 299 311 316 314 312 313 316 316 320 322 323 325 328 330 329 332 333 336 336 337 338 341 341 339 339 341 343 345 345 343 349 352 354 355 355 355 359 361 359 363 362 363
304 304 308 310 313 313 311 310 317 316 319 322 324 326 327 331 333 336 337 339 339 340 340 340 339 342 341 340 337 338 334 337 346 345 349 349 349 352 357 357 357 358 359 358
307 302 298 311 316 318 316 307 318 319 319 323 326 318 321 334 336 339 342 342 341 342 341 342 343 344 339 337 338 337 337 339 339 342 345 346 348 350 351 353 349 344 343 348
305 304 308 315 316 319 306 308 319 320 320 325 323 329 335 335 338 341 339 340 341 340 339 340 342 342 341 342 343 346 345 344 342 340 342 342 345 347 347 345 340 341 341 339
308 305 302 318 317 312 316 322 320 321 323 326 330 335 334 337 338 339 339 340 341 339 339 340 341 341 341 340 343 346 346 345 345 344 344 343 345 345 342 341 340 335 330 327
310 310 323 323 319 323 321 323 322 323 327 329 333 333 333 334 335 335 333 332 332 332 333 335 338 339 338 340 341 342 341 338 335 334 335 336 335 335 333 333 331 327 326 323
313 315 318 320 322 322 323 322 325 326 329 332 331 333 333 333 332 332 333 331 332 331 331 333 336 335 339 340 340 340 335 335 331 328 330 334 334 337 334 333 331 329 329 328
315 319 320 321 322 325 325 327 326 329 331 332 332 332 332 332 332 332 333 333 333 332 330 332 333 334 336 336 338 332 331 334 335 333 328 322 321 321 330 319 316 327 330 331
313 323 323 323 325 327 327 326 328 330 331 333 334 332 333 333 333 334 334 334 333 332 332 332 332 335 335 336 336 330 326 327 331 333 333 330 325 322 303 302 300 299 300 315
318 323 327 328 328 329 328 328 330 332 333 333 333 333 332 333 334 329 334 334 332 330 332 332 334 334 336 335 335 332 331 334 333 331 333 330 329 327 325 312 301 299 298 299
323 323 325 325 323 327 329 330 329 333 334 332 331 331 330 330 333 331 331 332 330 329 330 333 333 333 336 337 334 332 335 319 328 329 328 328 329 330 328 327 326 324 305 307
322 324 326 327 329 328 329 330 329 328 328 328 329 329 328 328 329 330 331 330 328 329 330 334 333 333 335 335 337 336 330 330 332 332 331 329 330 330 330 329 328 326 322 309
323 324 325 326 327 326 328 328 327 327 326 327 327 326 327 328 331 331 329 328 327 326 329 334 334 336 337 336 336 334 334 326 328 331 329 330 330 329 326 327 327 327 326 326
320 319 322 324 326 327 327 327 327 327 327 326 326 328 330 330 331 329 327 327 328 331 331 332 334 336 338 337 334 331 332 331 330 331 330 329 326 325 325 322 319 319 319 316
324 323 324 325 327 327 327 327 327 328 327 327 328 330 331 332 330 329 329 329 329 330 331 333 334 336 335 333 330 327 327 327 328 326 325 325 325 324 323 322 321 319 318 313
322 323 325 325 328 327 330 328 327 329 329 329 329 330 333 333 333 332 331 330 329 328 329 332 328 330 331 329 326 324 324 324 325 325 325 321 322 324 323 323 322 321 320 318
322 324 325 326 327 328 329 329 327 330 329 329 331 331 332 333 335 333 333 332 331 329 332 331 332 329 331 330 327 328 323 323 323 324 324 322 322 323 324 314 319 322 322 322
322 324 323 325 325 328 330 332 329 331 334 335 334 336 337 337 336 335 334 330 335 332 332 328 330 328 329 330 326 327 326 324 324 323 323 321 323 322 323 323 323 320 321 322
324 323 323 325 325 328 330 330 330 331 335 336 337 338 338 337 336 336 336 334 334 317 329 330 329 327 328 327 325 322 324 324 324 324 324 324 324 323 323 324 323 323 323 323
324 324 325 327 326 326 328 328 330 332 332 336 337 339 337 334 334 331 330 338 335 324 330 330 324 320 320 327 327 327 326 325 323 324 324 324 324 324 323 323 324 324 324 324
325 327 326 327 327 327 327 329 328 332 337 339 336 338 335 332 332 334 334 324 321 323 329 329 324 317 317 328 329 329 328 328 328 328 328 315 327 326 326 325 324 324 324 322
330 328 328 327 326 325 329 331 330 330 334 338 337 338 337 335 330 331 332 332 317 325 330 318 316 315 328 329 329 329 329 330 330 330 329 328 328 328 328 327 326 326 325 326
329 328 327 330 326 325 325 326 326 325 329 328 331 333 333 333 332 330 332 327 332 325 330 330 330 329 330 329 329 329 329 329 329 330 328 330 331 331 330 329 328 326 327 327
326 314 327 327 328 326 324 325 326 323 325 326 327 330 329 329 329 326 323 332 332 330 330 329 330 327 330 329 328 328 328 330 320 329 330 328 328 333 331 329 329 330 330 328
Wind_Speed
19 19 14 12 16 17 14 16 15 10 6 15 13 9 11 10 9 8 6 2 5 4 4 5 7 13 9 12 12 12 5 6 7 12 10 9 6 9 12 11 12 12 12 12
20 19 17 13 10 8 11 12 13 15 6 9 11 8 8 10 9 9 7 5 5 3 5 7 5 5 9 10 10 8 11 13 9 9 8 9 8 10 9 10 12 11 13 13
16 24 15 14 14 11 12 14 12 11 6 8 8 7 8 10 10 9 7 7 5 8 7 6 6 7 4 3 4 6 9 10 11 10 10 10 8 9 10 11 11 12 14 13
16 15 18 14 8 7 8 12 10 11 11 7 5 7 8 10 11 8 7 9 8 10 9 7 8 4 4 7 6 8 5 4 2 3 5 6 6 7 8 8 10 10 12 12
14 17 12 21 4 11 11 13 11 10 10 9 5 7 7 6 5 7 9 11 6 12 10 9 7 7 7 6 5 4 4 9 6 2 4 4 4 5 4 6 7 9 9 10
9 23 11 19 15 9 7 9 10 9 10 14 10 10 9 14 10 10 7 8 8 8 7 6 6 7 7 5 5 5 3 8 4 6 2 4 3 5 1 1 0 2 4 2
15 10 15 20 11 9 9 3 7 9 5 14 10 5 15 13 12 14 11 10 9 9 7 4 5 7 6 7 6 5 6 4 2 1 5 1 0 1 3 0 1 2 2 5
17 19 21 10 11 12 1 3 3 2 8 11 9 13 11 13 12 15 14 11 11 9 9 7 5 5 6 4 2 1 3 3 2 2 2 3 5 3 3 4 3 2 4 3
16 16 17 9 9 9 8 7 3 6 9 11 13 13 13 13 13 12 12 9 8 8 7 6 6 2 4 6 2 2 5 6 6 6 6 5 4 4 3 4 2 4 3 2
12 15 0 11 12 7 6 4 6 8 11 13 14 15 14 13 12 11 10 8 7 6 6 6 6 3 2 3 1 6 7 7 6 5 6 3 4 4 4 3 3 4 3 2
17 4 12 12 12 12 7 9 8 10 11 13 15 15 13 12 10 10 8 7 5 4 4 6 5 6 4 3 4 6 5 5 5 6 5 6 7 7 5 6 5 3 4 3
1 10 10 10 12 13 12 13 12 14 14 13 14 13 12 11 9 8 8 6 4 4 5 5 7 6 5 5 5 7 5 3 4 4 6 6 5 6 11 9 6 6 7 6
12 13 9 11 13 14 12 12 14 15 15 14 12 12 11 10 9 6 8 6 5 4 8 4 9 7 8 6 7 6 5 3 2 1 3 4 4 4 5 4 6 10 9 10
8 12 10 18 14 14 12 13 13 14 14 14 13 11 10 8 10 8 7 6 5 5 5 9 4 7 7 9 6 7 6 5 4 4 5 4 5 4 3 3 3 4 5 4
14 12 8 7 15 17 14 14 15 15 14 13 11 11 10 9 8 7 6 6 6 7 6 11 7 5 5 5 7 7 4 4 4 5 3 3 1 5 4 4 4 4 6 4
9 8 7 13 16 17 20 18 17 16 14 13 12 11 10 10 9 9 8 8 8 7 6 10 6 8 9 7 7 7 5 3 3 5 6 7 6 4 4 6 6 6 7 7
13 9 8 14 16 18 19 17 17 16 14 13 13 13 11 10 9 9 9 9 7 6 7 6 8 7 8 7 9 5 7 8 7 7 9 8 5 4 4 4 4 5 6 6
11 6 4 5 9 15 16 16 15 16 14 14 14 13 12 11 9 9 9 9 8 8 8 8 7 6 6 6 6 4 6 6 8 5 5 4 3 4 4 4 4 4 8 5
9 7 8 9 12 11 14 16 17 17 16 15 15 14 13 12 11 10 9 9 9 8 8 8 11 6 7 5 4 6 5 6 5 4 4 5 4 4 4 3 4 4 6 9
12 7 8 7 7 11 13 11 12 16 16 15 16 14 13 13 12 11 10 9 8 7 11 10 12 9 9 8 7 9 6 6 6 5 4 5 5 3 2 2 7 3 4 4
9 9 6 10 11 11 9 9 10 13 15 15 13 13 14 13 14 13 11 9 9 9 10 16 10 9 8 8 8 9 7 7 6 6 7 6 4 5 5 5 6 5 5 5
10 10 11 11 12 12 10 8 10 9 11 13 15 14 13 14 14 14 13 10 11 13 10 9 9 8 6 12 8 9 10 6 6 6 6 6 7 7 7 6 6 7 7 6
8 7 11 12 12 12 13 11 10 10 12 13 14 13 14 13 12 12 12 13 9 14 11 10 11 15 15 8 8 8 8 6 6 6 6 6 7 7 7 8 7 6 6 7
11 11 12 11 9 10 10 9 10 9 8 11 13 12 12 11 12 12 11 12 9 18 13 8 16 17 14 9 8 8 8 7 6 7 6 6 6 6 7 7 8 8 8 7
8 10 8 9 8 8 8 8 8 9 9 8 11 12 14 12 11 11 11 12 18 16 12 12 17 16 12 10 10 10 9 8 8 7 8 8 8 8 8 8 8 7 7 5
4 7 7 9 8 6 8 8 9 9 9 10 9 10 10 10 8 5 9 9 15 13 12 12 12 11 10 11 12 11 10 9 10 11 11 11 7 7 7 7 7 6 9 6
5 2 5 6 7 8 9 12 11 10 11 11 10 9 9 8 7 7 8 12 9 12 12 8 11 12 10 11 11 11 8 6 4 4 6 6 5 13 9 7 6 8 7 7
Wind_Direction
274 180 255 196 202 217 229 259 279 307 300 146 149 169 173 159 168 164 164 124 69 33 356 309 239 233 207 202 203 209 187 200 224 209 197 186 203 220 216 219 212 219 216 214
261 269 208 240 240 256 257 225 266 280 275 315 105 124 167 159 170 180 165 141 99 69 31 21 356 235 224 200 202 205 202 202 203 220 233 226 234 246 232 230 228 218 224 219
248 260 231 228 248 254 256 250 245 249 273 138 135 165 180 169 180 189 185 137 128 88 75 78 36 48 69 171 197 208 204 207 177 190 196 209 216 229 238 235 244 230 227 226
255 247 237 255 218 293 294 288 229 241 145 162 181 170 167 179 181 182 195 141 143 120 113 100 106 65 82 70 58 45 18 298 113 132 186 202 220 235 240 237 237 241 243 238
245 247 203 259 189 228 246 260 242 228 217 135 150 154 160 170 193 170 174 138 140 124 131 130 114 99 84 86 94 74 49 355 338 157 214 195 219 239 270 270 268 255 256 257
196 257 238 284 235 137 231 244 232 238 226 142 166 219 205 156 159 125 109 116 136 153 127 151 158 153 144 136 130 196 209 175 270 341 276 243 245 214 185 245 262 21 352 347
237 225 287 218 276 132 207 259 8 199 188 144 195 84 109 134 138 121 131 134 147 146 137 162 192 179 178 190 208 213 185 181 180 28 271 44 313 229 167 343 346 7 348 31
232 238 223 262 160 189 244 111 162 159 162 154 154 121 133 138 141 133 156 147 160 156 153 162 171 192 195 208 141 263 286 258 192 180 117 306 242 201 261 293 269 114 97 80
234 224 229 161 261 194 246 162 174 174 146 166 138 146 144 135 140 140 147 146 143 133 139 145 125 222 221 108 62 137 82 84 82 75 78 72 85 97 86 93 133 122 110 107
260 245 102 178 194 163 160 190 171 168 156 152 162 153 151 150 146 145 138 149 130 138 129 133 129 125 132 140 156 126 135 124 125 107 100 128 136 142 104 122 146 129 144 132
240 224 235 209 189 148 172 141 177 149 153 162 156 157 155 149 147 146 143 128 126 121 123 132 139 122 126 140 127 117 121 131 128 127 115 97 55 17 55 56 11 28 72 120
255 9 232 214 168 153 162 165 154 153 156 155 157 156 152 149 153 146 149 143 143 136 119 137 139 152 137 138 136 137 132 143 191 151 153 122 129 108 53 52 56 52 46 51
297 318 228 238 157 151 157 156 157 153 154 153 151 151 159 153 163 135 155 159 176 172 138 163 151 146 127 136 142 152 174 137 73 239 132 153 135 144 135 96 62 59 56 60
283 281 256 190 156 139 144 159 154 147 149 152 150 153 155 156 125 170 184 164 142 166 160 128 160 137 141 138 154 172 160 160 174 150 152 166 180 166 167 161 171 133 61 64
272 236 274 163 150 147 147 156 163 152 152 147 155 155 144 144 160 169 154 149 163 168 162 132 145 139 141 151 163 148 159 157 188 183 161 162 163 188 179 165 166 143 148 197
308 201 244 177 180 162 160 172 162 160 158 154 152 144 141 147 159 155 156 161 168 168 160 133 159 149 155 158 169 160 172 55 214 167 168 205 194 147 166 196 185 187 200 135
267 189 201 180 171 171 164 174 170 164 158 158 149 142 147 149 147 152 161 167 181 156 152 168 160 157 141 188 193 205 152 152 236 204 187 201 179 177 157 165 140 173 121 73
255 289 221 201 188 177 166 182 167 167 167 161 148 152 160 157 157 158 171 157 162 177 167 154 157 170 190 175 228 170 162 160 204 192 123 186 161 162 180 170 162 179 117 127
243 257 269 196 208 195 186 182 176 175 172 166 159 168 169 167 159 167 171 170 180 182 181 172 123 200 179 153 269 213 191 181 186 153 165 93 207 218 177 197 178 182 156 146
246 243 232 210 203 210 216 194 159 174 169 176 174 172 173 175 168 173 176 185 193 196 162 165 169 204 189 165 235 263 182 209 180 186 203 203 203 204 205 2 330 220 197 202
212 222 211 204 193 199 214 201 179 168 172 174 177 182 182 180 176 178 179 198 187 146 176 147 194 199 202 171 198 244 244 198 216 205 183 206 260 255 264 235 190 213 263 238
187 185 189 182 178 181 178 167 172 181 182 189 190 191 186 186 186 189 194 215 160 156 173 176 193 191 170 147 218 215 243 216 218 225 221 230 229 226 227 235 237 224 214 232
175 187 185 183 174 169 164 165 171 173 192 193 199 195 190 192 195 194 199 208 181 177 197 188 159 132 156 202 224 242 228 197 226 234 238 243 242 249 262 266 262 244 236 234
191 215 208 178 171 153 164 175 176 179 196 193 203 202 199 210 194 209 202 180 176 164 212 174 153 160 174 214 228 241 238 255 217 219 259 307 286 269 243 241 248 246 255 248
200 206 206 207 191 199 190 184 188 170 187 202 195 205 208 218 233 194 211 187 149 176 201 141 159 163 193 220 226 228 232 235 244 249 241 233 239 229 241 256 254 252 250 253
167 211 192 203 217 202 196 190 216 193 180 192 187 199 197 198 211 217 183 176 158 192 203 164 173 187 212 224 234 230 228 234 216 214 232 247 237 231 241 235 237 235 237 238
106 255 142 190 203 208 217 188 204 203 187 193 179 200 194 185 196 214 196 151 167 188 218 181 179 185 211 228 228 239 239 209 190 271 214 201 210 264 243 240 249 228 239 255